This is the latest recevied weather packets stored in our database for station/object K4WCH. If no packets are shown the sender has not sent any weather packets the latest 10 day(s).
| Time | Temp. | Humidity | Pressure | Rain* | Wind** | Luminosity | Snow |
|---|---|---|---|---|---|---|---|
| 1787942697 | 35° C | 51% | 1017 hPa | 0 mm | - | 952 W/m² | - |
| 1787942396 | 34.44° C | 53% | 1017.2 hPa | 0 mm | - | 971 W/m² | - |
| 1787942091 | 33.89° C | 52% | 1017.3 hPa | 0 mm | - | 979 W/m² | - |
| 1787941787 | 33.89° C | 54% | 1017.4 hPa | 0 mm | - | 1004 W/m² | - |
| 1787941486 | 33.89° C | 51% | 1017.6 hPa | 0 mm | - | 1035 W/m² | - |
| 1787941186 | 33.89° C | 52% | 1017.5 hPa | 0 mm | - | 1073 W/m² | - |
| 1787940881 | 33.33° C | 54% | 1017.7 hPa | 0 mm | - | 1093 W/m² | - |
| 1787940579 | 32.78° C | 57% | 1017.9 hPa | 0 mm | - | 673 W/m² | - |
| 1787940278 | 32.22° C | 58% | 1017.8 hPa | 0 mm | - | 255 W/m² | - |
| 1787939978 | 32.78° C | 57% | 1017.9 hPa | 0 mm | - | 161 W/m² | - |
| 1787939678 | 32.78° C | 58% | 1018 hPa | 0 mm | - | 1119 W/m² | - |
| 1787939380 | 33.33° C | 55% | 1018 hPa | 0 mm | - | 257 W/m² | - |
| 1787939068 | 33.33° C | 55% | 1017.9 hPa | 0 mm | - | 1061 W/m² | - |
| 1787938767 | 33.33° C | 55% | 1018 hPa | 0 mm | - | 1057 W/m² | - |
| 1787938463 | 32.78° C | 56% | 1018.1 hPa | 0 mm | - | 1074 W/m² | - |
| 1787938158 | 32.78° C | 56% | 1018.2 hPa | 0 mm | - | 1092 W/m² | - |
| 1787937853 | 32.78° C | 56% | 1018.1 hPa | 0 mm | - | 1040 W/m² | - |
| 1787937549 | 32.78° C | 57% | 1018.3 hPa | 0 mm | - | 1044 W/m² | - |
| 1787937245 | 32.22° C | 57% | 1018.3 hPa | 0 mm | - | 947 W/m² | - |
| 1787936940 | 32.22° C | 56% | 1018.4 hPa | 0 mm | - | 1134 W/m² | - |
| 1787936639 | 32.78° C | 56% | 1018.4 hPa | 0 mm | - | 1060 W/m² | - |
| 1787936338 | 32.22° C | 57% | 1018.5 hPa | 0 mm | - | 1023 W/m² | - |
| 1787936034 | 32.22° C | 58% | 1018.4 hPa | 0 mm | - | 264 W/m² | - |
| 1787935729 | 32.22° C | 59% | 1018.6 hPa | 0 mm | - | 214 W/m² | - |
| 1787935426 | 31.67° C | 58% | 1018.6 hPa | 0 mm | - | 241 W/m² | - |
* Rain latest hour (hover to see other rain measurements)
** Current wind speed in m/s (hover to see current wind gust speed)